����,���ϕ���(m/s),���ϕ���,�ő�u�ԕ���(m/s),�ő啗��������,�C��(��),���x(%),10���Ԉړ��ώZ�J��(mm),1���Ԉړ��ώZ�J��(mm),���J��(mm),�݌v�J��(mm)
2023-10-02T00:00:00+09:00,1,��,2.1,���쓌,16.6,90.8,0,0,4,17.5
2023-10-02T00:01:00+09:00,1,��,2.1,���쓌,16.5,90.9,0,0,0,17.5
2023-10-02T00:02:00+09:00,1.1,��,2.1,���쓌,16.6,91.2,0,0,0,17.5
2023-10-02T00:03:00+09:00,1.2,��,2.1,���쓌,16.6,91.2,0,0,0,17.5
2023-10-02T00:04:00+09:00,1.2,���쓌,2.1,���쓌,16.7,91.4,0,0,0,17.5
2023-10-02T00:05:00+09:00,1.3,���쓌,2.1,���쓌,16.6,91,0,0,0,17.5
2023-10-02T00:06:00+09:00,1.3,���쓌,2.1,���쓌,16.6,91.1,0,0,0,17.5
2023-10-02T00:07:00+09:00,1.4,���쓌,2.1,���쓌,16.6,90.9,0,0,0,17.5
2023-10-02T00:08:00+09:00,1.5,���쓌,2.1,���쓌,16.5,90.8,0,0,0,17.5
2023-10-02T00:09:00+09:00,1.5,���쓌,2.1,���쓌,16.5,90.8,0,0,0,17.5
2023-10-02T00:10:00+09:00,1.5,���쓌,2.1,���쓌,16.5,91,0,0,0,17.5
2023-10-02T00:11:00+09:00,1.5,���쓌,2.1,���쓌,16.5,91,0,0,0,17.5
2023-10-02T00:12:00+09:00,1.5,���쓌,2.1,���쓌,16.4,91,0,0,0,17.5
2023-10-02T00:13:00+09:00,1.4,��,2.1,���쓌,16.3,90.8,0,0,0,17.5
2023-10-02T00:14:00+09:00,1.4,��,2.1,���쓌,16.3,91.1,0,0,0,17.5
2023-10-02T00:15:00+09:00,1.4,��,2.1,���쓌,16.3,91.3,0,0,0,17.5
2023-10-02T00:16:00+09:00,1.3,��,2.1,���쓌,16.4,91.8,0,0,0,17.5
2023-10-02T00:17:00+09:00,1.3,��,2.1,���쓌,16.4,92.1,0,0,0,17.5
2023-10-02T00:18:00+09:00,1.2,��,2.2,�k��,16.4,91.5,0,0,0,17.5
2023-10-02T00:19:00+09:00,1.2,���k��,2.2,�k��,16.3,91.6,0,0,0,17.5
2023-10-02T00:20:00+09:00,1.2,���k��,2.2,�k��,16.3,91.7,0,0,0,17.5
2023-10-02T00:21:00+09:00,1.3,���k��,2.2,�k��,16.3,91.9,0,0,0,17.5
2023-10-02T00:22:00+09:00,1.3,���k��,2.2,�k��,16.4,92.4,0,0,0,17.5
2023-10-02T00:23:00+09:00,1.3,���k��,2.2,�k��,16.4,92.7,0,0,0,17.5
2023-10-02T00:24:00+09:00,1.4,���k��,2.9,��쓌,16.5,92.7,0,0,0,17.5
2023-10-02T00:25:00+09:00,1.4,���k��,2.9,��쓌,16.5,92.6,0,0,0,17.5
2023-10-02T00:26:00+09:00,1.5,���k��,2.9,��쓌,16.5,92.5,0,0,0,17.5
2023-10-02T00:27:00+09:00,1.6,���k��,3,���쓌,16.5,92.6,0,0,0,17.5
2023-10-02T00:28:00+09:00,1.6,��,3.2,���쓌,16.5,92.5,0,0,0,17.5
2023-10-02T00:29:00+09:00,1.6,��,3.2,���쓌,16.5,92.5,0,0,0,17.5
2023-10-02T00:30:00+09:00,1.6,��,3.2,���쓌,16.5,92.4,0,0,0,17.5
2023-10-02T00:31:00+09:00,1.6,��,3.2,���쓌,16.5,92.4,0,0,0,17.5
2023-10-02T00:32:00+09:00,1.6,��,3.2,���쓌,16.5,92.5,0,0,0,17.5
2023-10-02T00:33:00+09:00,1.6,��,3.2,���쓌,16.5,92.6,0,0,0,17.5
2023-10-02T00:34:00+09:00,1.5,��,3.2,���쓌,16.5,92.6,0,0,0,17.5
2023-10-02T00:35:00+09:00,1.6,��,3.2,���쓌,16.5,92.6,0,0,0,17.5
2023-10-02T00:36:00+09:00,1.6,��,3.2,���쓌,16.5,92.5,0,0,0,17.5
2023-10-02T00:37:00+09:00,1.4,��,3.2,���쓌,16.4,92.5,0,0,0,17.5
2023-10-02T00:38:00+09:00,1.3,��,2.8,���쓌,16.4,92.6,0,0,0,17.5
2023-10-02T00:39:00+09:00,1.3,��,2.8,���쓌,16.4,92.7,0,0,0,17.5
2023-10-02T00:40:00+09:00,1.2,��,2.8,���쓌,16.4,92.6,0,0,0,17.5
2023-10-02T00:41:00+09:00,1.2,��,2.8,���쓌,16.3,92.6,0,0,0,17.5
2023-10-02T00:42:00+09:00,1.1,��,2.5,���쓌,16.3,92.7,0,0,0,17.5
2023-10-02T00:43:00+09:00,1.1,��,2.5,���쓌,16.4,92.9,0,0,0,17.5
2023-10-02T00:44:00+09:00,1.1,��,2,��,16.4,93.1,0,0,0,17.5
2023-10-02T00:45:00+09:00,1.1,��,2.1,���k��,16.4,93.1,0,0,0,17.5
2023-10-02T00:46:00+09:00,1.1,��,2.1,���k��,16.3,93.2,0,0,0,17.5
2023-10-02T00:47:00+09:00,1.1,���k��,2.1,���k��,16.3,93.2,0,0,0,17.5
2023-10-02T00:48:00+09:00,1.1,���k��,2.1,���k��,16.2,93,0,0,0,17.5
2023-10-02T00:49:00+09:00,1,���k��,2.1,���k��,16.3,93.4,0,0,0,17.5
2023-10-02T00:50:00+09:00,1,���k��,2.1,���k��,16.3,93.5,0,0,0,17.5
2023-10-02T00:51:00+09:00,0.9,�k��,2.1,���k��,16.2,93.4,0,0,0,17.5
2023-10-02T00:52:00+09:00,0.9,���k��,2.1,���k��,16.2,93.3,0,0,0,17.5
2023-10-02T00:53:00+09:00,1,���k��,2.1,���k��,16.2,93.2,0,0,0,17.5
2023-10-02T00:54:00+09:00,1,���k��,2.1,���k��,16.2,93.4,0,0,0,17.5
2023-10-02T00:55:00+09:00,1,���k��,2.8,��,16.2,93.7,0,0,0,17.5
2023-10-02T00:56:00+09:00,1.2,���k��,2.8,��,16.3,93.7,0,0,0,17.5
2023-10-02T00:57:00+09:00,1.3,���k��,2.8,��,16.3,93.7,0,0,0,17.5
2023-10-02T00:58:00+09:00,1.4,��,3,���쓌,16.2,93.6,0,0,0,17.5
2023-10-02T00:59:00+09:00,1.7,��,3.3,���쓌,16.2,93.6,0,0,0,17.5
2023-10-02T01:00:00+09:00,1.9,��,3.3,���쓌,16.2,93.6,0,0,0,17.5
2023-10-02T01:01:00+09:00,2,��,3.3,���쓌,16.3,93.6,0,0,0,17.5
2023-10-02T01:02:00+09:00,2,��,3.3,���쓌,16.5,94.4,0,0,0,17.5
2023-10-02T01:03:00+09:00,2,��,3.3,���쓌,16.3,93.5,0,0,0,17.5
2023-10-02T01:04:00+09:00,2,��,3.3,���쓌,16.2,93.1,0,0,0,17.5
2023-10-02T01:05:00+09:00,1.9,��,3.3,���쓌,16.3,93.2,0,0,0,17.5
2023-10-02T01:06:00+09:00,1.7,��,3.3,���쓌,16.3,93.5,0,0,0,17.5
2023-10-02T01:07:00+09:00,1.6,��,3.3,���쓌,16.3,93.4,0,0,0,17.5
2023-10-02T01:08:00+09:00,1.4,��,3.3,���쓌,16.3,93.5,0,0,0,17.5
2023-10-02T01:09:00+09:00,1.3,��,3,���쓌,16.3,93.5,0,0,0,17.5
2023-10-02T01:10:00+09:00,1.1,���k��,2.8,���쓌,16.3,93.4,0,0,0,17.5
2023-10-02T01:11:00+09:00,1,���k��,2,�k��,16.3,93.6,0,0,0,17.5
2023-10-02T01:12:00+09:00,1.1,���k��,2,�k��,16.3,93.5,0,0,0,17.5
2023-10-02T01:13:00+09:00,1.1,���k��,1.8,���k��,16.3,93.5,0,0,0,17.5
2023-10-02T01:14:00+09:00,1.1,��,1.8,���k��,16.3,93.6,0,0,0,17.5
2023-10-02T01:15:00+09:00,1.1,��,1.8,���k��,16.3,93.7,0,0,0,17.5
2023-10-02T01:16:00+09:00,1.1,��,1.8,���k��,16.3,93.6,0,0,0,17.5
2023-10-02T01:17:00+09:00,1.1,��,1.8,���k��,16.3,93.6,0,0,0,17.5
2023-10-02T01:18:00+09:00,1.2,��,1.8,���k��,16.2,93.5,0,0,0,17.5
2023-10-02T01:19:00+09:00,1.2,��,1.8,���k��,16.2,93.4,0,0,0,17.5
2023-10-02T01:20:00+09:00,1.2,���k��,1.8,���k��,16.2,93.5,0,0,0,17.5
2023-10-02T01:21:00+09:00,1.2,���k��,1.8,���k��,16.1,93.5,0,0,0,17.5
2023-10-02T01:22:00+09:00,1.2,���k��,1.9,���k��,16.2,93.7,0,0,0,17.5
2023-10-02T01:23:00+09:00,1.3,���k��,1.9,���k��,16.2,93.8,0,0,0,17.5
2023-10-02T01:24:00+09:00,1.2,���k��,1.9,���k��,16.1,93.8,0,0,0,17.5
2023-10-02T01:25:00+09:00,1.3,�k��,1.9,���k��,16.1,93.9,0,0,0,17.5
2023-10-02T01:26:00+09:00,1.3,�k��,1.9,���k��,16.1,94,0,0,0,17.5
2023-10-02T01:27:00+09:00,1.3,�k��,1.9,���k��,16.1,94,0,0,0,17.5
2023-10-02T01:28:00+09:00,1.3,�k��,1.9,���k��,16.2,94.2,0,0,0,17.5
2023-10-02T01:29:00+09:00,1.3,���k��,1.9,���k��,16.2,94.3,0,0,0,17.5
2023-10-02T01:30:00+09:00,1.3,���k��,1.9,���k��,16.2,94.3,0,0,0,17.5
2023-10-02T01:31:00+09:00,1.3,���k��,1.9,���k��,16.2,94.2,0,0,0,17.5
2023-10-02T01:32:00+09:00,1.2,���k��,1.9,���k��,16.1,94,0,0,0,17.5
2023-10-02T01:33:00+09:00,1.2,���k��,1.9,���k��,16.1,94.1,0,0,0,17.5
2023-10-02T01:34:00+09:00,1.2,���k��,1.9,���k��,16.1,94.4,0,0,0,17.5
2023-10-02T01:35:00+09:00,1.1,��,1.9,���k��,16.1,94.4,0,0,0,17.5
2023-10-02T01:36:00+09:00,1.2,��,2.2,���쓌,16.1,94.4,0,0,0,17.5
2023-10-02T01:37:00+09:00,1.2,��,2.3,��,16.1,94.5,0,0,0,17.5
2023-10-02T01:38:00+09:00,1.3,��,2.3,��,16.1,94.4,0,0,0,17.5
2023-10-02T01:39:00+09:00,1.3,��,2.3,��,16.1,94.4,0,0,0,17.5
2023-10-02T01:40:00+09:00,1.3,��,2.3,��,16.1,94.5,0,0,0,17.5
2023-10-02T01:41:00+09:00,1.4,��,2.4,��쓌,16.1,94.5,0,0,0,17.5
2023-10-02T01:42:00+09:00,1.5,���쓌,2.4,��쓌,16.1,94.6,0,0,0,17.5
2023-10-02T01:43:00+09:00,1.4,���쓌,2.4,��쓌,16.2,94.9,0,0,0,17.5
2023-10-02T01:44:00+09:00,1.3,���쓌,2.4,��쓌,16.1,94.7,0,0,0,17.5
2023-10-02T01:45:00+09:00,1.2,���쓌,2.4,��쓌,16.2,94.7,0,0,0,17.5
2023-10-02T01:46:00+09:00,1.3,�쓌,2.4,��쓌,16.2,94.7,0,0,0,17.5
2023-10-02T01:47:00+09:00,1.3,�쓌,2.4,��쓌,16.2,94.6,0,0,0,17.5
2023-10-02T01:48:00+09:00,1.1,�쓌,2.4,��쓌,16.1,94.6,0,0,0,17.5
2023-10-02T01:49:00+09:00,1.1,�쓌,2.4,��쓌,16.2,94.6,0,0,0,17.5
2023-10-02T01:50:00+09:00,1.1,�쓌,2.4,��쓌,16.2,94.7,0,0,0,17.5
2023-10-02T01:51:00+09:00,1,�쓌,2.4,��쓌,16.2,94.7,0,0,0,17.5
2023-10-02T01:52:00+09:00,0.9,���쓌,2.3,��쓌,16.1,94.6,0,0,0,17.5
2023-10-02T01:53:00+09:00,1,���쓌,2.3,��쓌,16,94.4,0,0,0,17.5
2023-10-02T01:54:00+09:00,1.1,��,2.3,��쓌,16,94.5,0,0,0,17.5
2023-10-02T01:55:00+09:00,1.1,��,2.3,��쓌,16,94.5,0,0,0,17.5
2023-10-02T01:56:00+09:00,1.1,��,2.3,��쓌,16.1,94.8,0,0,0,17.5
2023-10-02T01:57:00+09:00,1.1,��,1.8,���쓌,16,94.8,0,0,0,17.5
2023-10-02T01:58:00+09:00,1.1,��,1.8,���쓌,16.1,94.8,0,0,0,17.5
2023-10-02T01:59:00+09:00,1.2,��,1.8,���쓌,16,94.7,0,0,0,17.5
2023-10-02T02:00:00+09:00,1.2,��,1.8,���쓌,16,94.7,0,0,0,17.5
2023-10-02T02:01:00+09:00,1.2,��,1.8,���쓌,16,94.8,0,0,0,17.5
2023-10-02T02:02:00+09:00,1.2,��,1.8,���쓌,16,94.9,0,0,0,17.5
2023-10-02T02:03:00+09:00,1.1,��,1.8,���쓌,16,94.9,0,0,0,17.5
2023-10-02T02:04:00+09:00,1,��,1.8,���쓌,16,94.9,0,0,0,17.5
2023-10-02T02:05:00+09:00,0.9,��,1.8,���쓌,15.9,94.8,0,0,0,17.5
2023-10-02T02:06:00+09:00,0.8,��,1.8,���쓌,15.9,94.8,0,0,0,17.5
2023-10-02T02:07:00+09:00,0.7,��,1.8,���쓌,16,95.3,0,0,0,17.5
2023-10-02T02:08:00+09:00,0.6,��,1.8,���쓌,15.9,95,0,0,0,17.5
2023-10-02T02:09:00+09:00,0.6,��,1.8,���쓌,15.8,94.7,0,0,0,17.5
2023-10-02T02:10:00+09:00,0.5,��,1.4,���k��,15.8,94.9,0,0,0,17.5
2023-10-02T02:11:00+09:00,0.5,��,1.4,���k��,15.8,95,0,0,0,17.5
2023-10-02T02:12:00+09:00,0.5,���k��,1.4,���k��,15.8,95,0,0,0,17.5
2023-10-02T02:13:00+09:00,0.5,��,1.4,���k��,15.8,95.1,0,0,0,17.5
2023-10-02T02:14:00+09:00,0.5,���k��,1.4,���k��,15.9,95.1,0,0,0,17.5
2023-10-02T02:15:00+09:00,0.6,���k��,1.6,���k��,15.8,95.1,0,0,0,17.5
2023-10-02T02:16:00+09:00,0.7,���k��,1.6,���k��,15.8,95.1,0,0,0,17.5
2023-10-02T02:17:00+09:00,0.7,���k��,1.6,���k��,15.8,95.2,0,0,0,17.5
2023-10-02T02:18:00+09:00,0.7,��,1.6,���k��,15.8,95.3,0,0,0,17.5
2023-10-02T02:19:00+09:00,0.8,��,1.6,���k��,15.8,95.3,0,0,0,17.5
2023-10-02T02:20:00+09:00,0.8,��,1.6,���k��,15.8,95.3,0,0,0,17.5
2023-10-02T02:21:00+09:00,0.8,���쓌,1.6,���k��,15.9,95.3,0,0,0,17.5
2023-10-02T02:22:00+09:00,0.7,���쓌,1.6,���k��,15.9,95.4,0,0,0,17.5
2023-10-02T02:23:00+09:00,0.8,���쓌,1.6,���k��,15.9,95.4,0,0,0,17.5
2023-10-02T02:24:00+09:00,0.8,�쓌,1.6,���k��,16,95.6,0,0,0,17.5
2023-10-02T02:25:00+09:00,0.8,�쓌,1.9,��쓌,16.1,95.6,0,0,0,17.5
2023-10-02T02:26:00+09:00,0.8,�쓌,1.9,��쓌,16.1,95.7,0,0,0,17.5
2023-10-02T02:27:00+09:00,0.8,�쓌,1.9,��쓌,16.1,95.5,0,0,0,17.5
2023-10-02T02:28:00+09:00,0.8,�쓌,1.9,��쓌,16,95.3,0,0,0,17.5
2023-10-02T02:29:00+09:00,0.8,�쓌,1.9,��쓌,16.1,95.5,0,0,0,17.5
2023-10-02T02:30:00+09:00,0.8,�쓌,1.9,��쓌,16.1,95.5,0,0,0,17.5
2023-10-02T02:31:00+09:00,0.8,�쓌,1.9,��쓌,16.1,95.4,0,0,0,17.5
2023-10-02T02:32:00+09:00,0.9,�쓌,1.9,��쓌,16,95.3,0,0,0,17.5
2023-10-02T02:33:00+09:00,1,��쓌,3.2,��,16,95.2,0,0,0,17.5
2023-10-02T02:34:00+09:00,1.1,��쓌,3.2,��,16,95.4,0,0,0,17.5
2023-10-02T02:35:00+09:00,1.1,��쓌,3.2,��,16.1,95.6,0,0,0,17.5
2023-10-02T02:36:00+09:00,1.3,��쓌,3.2,��,16.2,95.7,0,0,0,17.5
2023-10-02T02:37:00+09:00,1.4,��쓌,3.2,��,16.4,95.8,0,0,0,17.5
2023-10-02T02:38:00+09:00,1.4,��쓌,3.2,��,16.6,95.8,0,0,0,17.5
2023-10-02T02:39:00+09:00,1.4,��,3.2,��,16.7,95.8,0,0,0,17.5
2023-10-02T02:40:00+09:00,1.4,��,3.2,��,16.7,95.8,0,0,0,17.5
2023-10-02T02:41:00+09:00,1.4,��,3.2,��,16.8,95.7,0,0,0,17.5
2023-10-02T02:42:00+09:00,1.3,��,3.2,��,16.9,95.5,0,0,0,17.5
2023-10-02T02:43:00+09:00,1.2,��,3.1,��,16.9,95.4,0,0,0,17.5
2023-10-02T02:44:00+09:00,1.1,��쓌,2.8,��,16.9,95.3,0,0,0,17.5
2023-10-02T02:45:00+09:00,1,��쓌,2.8,��,17,95.4,0,0,0,17.5
2023-10-02T02:46:00+09:00,0.9,��쓌,2.4,��쓌,17,95.4,0,0,0,17.5
2023-10-02T02:47:00+09:00,0.8,��쓌,2.3,��쓌,17.1,95.2,0,0,0,17.5
2023-10-02T02:48:00+09:00,0.8,�쓌,2.3,��쓌,17.1,95,0,0,0,17.5
2023-10-02T02:49:00+09:00,0.7,�쓌,1.8,���쓌,16.8,94,0,0,0,17.5
2023-10-02T02:50:00+09:00,0.6,���쓌,1.8,���쓌,17,94.5,0,0,0,17.5
2023-10-02T02:51:00+09:00,0.6,���쓌,1.8,���쓌,17,94.5,0,0,0,17.5
2023-10-02T02:52:00+09:00,0.6,��,1.8,���쓌,16.9,93.6,0,0,0,17.5
2023-10-02T02:53:00+09:00,0.6,��,1.8,���쓌,16.7,93,0,0,0,17.5
2023-10-02T02:54:00+09:00,0.7,���k��,1.8,���쓌,16.5,92.9,0,0,0,17.5
2023-10-02T02:55:00+09:00,0.6,���k��,1.6,�k��,16.5,92.8,0,0,0,17.5
2023-10-02T02:56:00+09:00,0.6,���k��,2.8,���쓌,16.5,93.1,0,0,0,17.5
2023-10-02T02:57:00+09:00,0.6,���k��,2.8,���쓌,16.6,93.4,0,0,0,17.5
2023-10-02T02:58:00+09:00,0.6,���k��,2.8,���쓌,16.7,93.5,0,0,0,17.5
2023-10-02T02:59:00+09:00,0.7,���k��,2.8,���쓌,16.8,93.6,0,0,0,17.5
2023-10-02T03:00:00+09:00,0.8,��,2.8,���쓌,16.8,93.7,0,0,0,17.5
2023-10-02T03:01:00+09:00,0.9,��,2.8,���쓌,16.9,93.8,0,0,0,17.5
2023-10-02T03:02:00+09:00,1.1,��,2.8,���쓌,16.9,93.3,0,0,0,17.5
2023-10-02T03:03:00+09:00,1,��,2.8,���쓌,17,93.4,0,0,0,17.5
2023-10-02T03:04:00+09:00,0.9,���쓌,2.8,���쓌,17.1,93.1,0,0,0,17.5
2023-10-02T03:05:00+09:00,0.9,���쓌,2.8,���쓌,17.2,92.9,0,0,0,17.5
2023-10-02T03:06:00+09:00,0.9,�쓌,2.2,��쓌,17.3,92.7,0,0,0,17.5
2023-10-02T03:07:00+09:00,0.9,���쓌,2.2,��쓌,17.5,91.9,0,0,0,17.5
2023-10-02T03:08:00+09:00,0.8,���쓌,2.2,��쓌,17.3,91.5,0,0,0,17.5
2023-10-02T03:09:00+09:00,0.8,���쓌,1.9,�쓌,17.4,90.5,0,0,0,17.5
2023-10-02T03:10:00+09:00,0.7,���쓌,1.8,��쓌,17.6,90.2,0,0,0,17.5
2023-10-02T03:11:00+09:00,0.6,��,1.8,��쓌,17.7,89.6,0,0,0,17.5
2023-10-02T03:12:00+09:00,0.5,���쓌,1.2,�쐼,17.8,89.1,0,0,0,17.5
2023-10-02T03:13:00+09:00,0.5,���쓌,2.2,�k�k��,17.8,88.2,0,0,0,17.5
2023-10-02T03:14:00+09:00,0.6,���쓌,2.2,�k�k��,18,87,0,0,0,17.5
2023-10-02T03:15:00+09:00,0.7,��,2.2,�k�k��,18.3,86.3,0,0,0,17.5
2023-10-02T03:16:00+09:00,0.7,��,2.2,�k�k��,18.3,84.4,0,0,0,17.5
2023-10-02T03:17:00+09:00,0.8,��,2.2,�k�k��,18.3,82.5,0,0,0,17.5
2023-10-02T03:18:00+09:00,0.7,��,2.2,�k�k��,18.2,81.2,0,0,0,17.5
2023-10-02T03:19:00+09:00,0.8,��,2.2,�k�k��,18.3,80.5,0,0,0,17.5
2023-10-02T03:20:00+09:00,0.8,���쓌,2.2,�k�k��,18.1,79.9,0,0,0,17.5
2023-10-02T03:21:00+09:00,1,���쓌,4.9,���쓌,18,80,0,0,0,17.5
2023-10-02T03:22:00+09:00,1.1,��,4.9,���쓌,18.2,80.5,0,0,0,17.5
2023-10-02T03:23:00+09:00,1.2,��,4.9,���쓌,18.2,79.8,0,0,0,17.5
2023-10-02T03:24:00+09:00,1.3,��,4.9,���쓌,18.3,79.2,0,0,0,17.5
2023-10-02T03:25:00+09:00,1.4,��,4.9,���쓌,18.4,78.5,0,0,0,17.5
2023-10-02T03:26:00+09:00,1.4,��,4.9,���쓌,18.6,77.9,0,0,0,17.5
2023-10-02T03:27:00+09:00,1.4,���k��,4.9,���쓌,18.5,76.8,0,0,0,17.5
2023-10-02T03:28:00+09:00,1.5,���k��,4.9,���쓌,18.5,76,0,0,0,17.5
2023-10-02T03:29:00+09:00,1.4,���k��,4.9,���쓌,18.5,76,0,0,0,17.5
2023-10-02T03:30:00+09:00,1.3,���k��,4.9,���쓌,18.5,75.9,0,0,0,17.5
2023-10-02T03:31:00+09:00,1.1,���k��,4.3,���k��,18.5,75.8,0,0,0,17.5
2023-10-02T03:32:00+09:00,1,���k��,4.3,���k��,18.5,76.1,0,0,0,17.5
2023-10-02T03:33:00+09:00,0.9,���k��,4.3,���k��,18.4,76.7,0,0,0,17.5
2023-10-02T03:34:00+09:00,0.8,��,4.3,���k��,18.3,77.1,0,0,0,17.5
2023-10-02T03:35:00+09:00,0.7,���쓌,1.8,��,18.3,77.5,0,0,0,17.5
2023-10-02T03:36:00+09:00,0.7,���쓌,1.6,�k��,18.2,77.6,0,0,0,17.5
2023-10-02T03:37:00+09:00,0.8,�쓌,2.1,��쓌,18.3,77.8,0,0,0,17.5
2023-10-02T03:38:00+09:00,0.8,�쓌,2.1,��쓌,18.2,78.2,0,0,0,17.5
2023-10-02T03:39:00+09:00,0.9,�쓌,2.1,��쓌,18.1,78.5,0,0,0,17.5
2023-10-02T03:40:00+09:00,1,�쓌,2.1,��쓌,18,79.2,0,0,0,17.5
2023-10-02T03:41:00+09:00,1,�쓌,2.1,��쓌,18,79.7,0,0,0,17.5
2023-10-02T03:42:00+09:00,1,�쓌,2.1,��쓌,18.1,80.2,0,0,0,17.5
2023-10-02T03:43:00+09:00,1,�쓌,2.1,��쓌,18.2,80.1,0,0,0,17.5
2023-10-02T03:44:00+09:00,1,�쓌,2.1,��쓌,18.2,79.6,0,0,0,17.5
2023-10-02T03:45:00+09:00,1,���쓌,2.1,��쓌,18.3,79.1,0,0,0,17.5
2023-10-02T03:46:00+09:00,1,���쓌,2.1,��쓌,18.4,78.5,0,0,0,17.5
2023-10-02T03:47:00+09:00,1,���쓌,2.6,���쓌,18.5,77.9,0,0,0,17.5
2023-10-02T03:48:00+09:00,1,���쓌,2.7,���쓌,18.4,77.1,0,0,0,17.5
2023-10-02T03:49:00+09:00,1,��,2.7,���쓌,18.3,76.6,0,0,0,17.5
2023-10-02T03:50:00+09:00,1,��,2.7,���쓌,18.5,76.6,0,0,0,17.5
2023-10-02T03:51:00+09:00,1.2,��,2.7,���쓌,18.6,76,0,0,0,17.5
2023-10-02T03:52:00+09:00,1.3,��,2.7,���쓌,18.7,75.3,0,0,0,17.5
2023-10-02T03:53:00+09:00,1.2,���k��,2.7,���쓌,18.5,74.5,0,0,0,17.5
2023-10-02T03:54:00+09:00,1.2,���k��,2.7,���쓌,18.4,74.5,0,0,0,17.5
2023-10-02T03:55:00+09:00,1.3,��,2.7,���쓌,18.3,75.3,0,0,0,17.5
2023-10-02T03:56:00+09:00,1.3,��,2.7,���쓌,18.3,76.1,0,0,0,17.5
2023-10-02T03:57:00+09:00,1.3,��,2.7,���쓌,18.1,76.9,0,0,0,17.5
2023-10-02T03:58:00+09:00,1.3,���쓌,2.6,�k��,18,77.6,0,0,0,17.5
2023-10-02T03:59:00+09:00,1.2,���쓌,2.6,�k��,17.9,78.5,0,0,0,17.5
2023-10-02T04:00:00+09:00,1.1,�쓌,2.6,�k��,17.7,79,0,0,0,17.5
2023-10-02T04:01:00+09:00,1,�쓌,2.4,��,17.9,79.6,0,0,0,17.5
2023-10-02T04:02:00+09:00,1,�쓌,3.1,���k��,17.9,79.8,0,0,0,17.5
2023-10-02T04:03:00+09:00,1.2,���쓌,3.2,���k��,18.1,79.4,0,0,0,17.5
2023-10-02T04:04:00+09:00,1.2,���쓌,3.2,���k��,18.3,78.5,0,0,0,17.5
2023-10-02T04:05:00+09:00,1,��,3.2,���k��,18.1,77.3,0,0,0,17.5
2023-10-02T04:06:00+09:00,1,���k��,3.2,���k��,18,77.2,0,0,0,17.5
2023-10-02T04:07:00+09:00,0.9,���k��,3.2,���k��,18.1,77.9,0,0,0,17.5
2023-10-02T04:08:00+09:00,0.9,���k��,3.2,���k��,18.1,77.8,0,0,0,17.5
2023-10-02T04:09:00+09:00,0.9,���k��,3.2,���k��,18.1,77.7,0,0,0,17.5
2023-10-02T04:10:00+09:00,0.9,���k��,3.2,���k��,18,77.1,0,0,0,17.5
2023-10-02T04:11:00+09:00,0.8,���k��,3.2,���k��,18,77.4,0,0,0,17.5
2023-10-02T04:12:00+09:00,0.8,���k��,3.2,���k��,18.2,77.6,0,0,0,17.5
2023-10-02T04:13:00+09:00,0.7,���k��,2.6,�쓌,18.3,77.1,0,0,0,17.5
2023-10-02T04:14:00+09:00,0.8,���k��,2.6,�쓌,18.4,76.5,0,0,0,17.5
2023-10-02T04:15:00+09:00,0.9,��,2.6,�쓌,18.5,75.7,0,0,0,17.5
2023-10-02T04:16:00+09:00,1,��,2.7,��쓌,18.6,74.9,0,0,0,17.5
2023-10-02T04:17:00+09:00,1.2,���k��,5.3,�k��,18.7,73.7,0,0,0,17.5
2023-10-02T04:18:00+09:00,1.5,���k��,6.1,�k��,18.8,72.6,0,0,0,17.5
2023-10-02T04:19:00+09:00,1.8,���k��,6.1,�k��,18.8,71.4,0,0,0,17.5
2023-10-02T04:20:00+09:00,1.9,���k��,6.1,�k��,18.6,71.3,0,0,0,17.5
2023-10-02T04:21:00+09:00,2,���k��,6.1,�k��,18.5,71.9,0,0,0,17.5
2023-10-02T04:22:00+09:00,2,���k��,6.1,�k��,18.5,72.1,0,0,0,17.5
2023-10-02T04:23:00+09:00,2,�k��,6.1,�k��,18.3,72.5,0,0,0,17.5
2023-10-02T04:24:00+09:00,1.9,�k��,6.1,�k��,18.3,73.4,0,0,0,17.5
2023-10-02T04:25:00+09:00,1.9,�k��,6.1,�k��,18.2,73.9,0,0,0,17.5
2023-10-02T04:26:00+09:00,1.9,�k��,6.1,�k��,18.1,73.9,0,0,0,17.5
2023-10-02T04:27:00+09:00,1.8,�k��,6.1,�k��,18.1,74.3,0,0,0,17.5
2023-10-02T04:28:00+09:00,1.5,�k��,3.9,�k��,18,74.8,0,0,0,17.5
2023-10-02T04:29:00+09:00,1.3,�k��,3,���쓌,18,75.4,0,0,0,17.5
2023-10-02T04:30:00+09:00,1.1,���k��,3,���쓌,18,75.6,0,0,0,17.5
2023-10-02T04:31:00+09:00,1,���k��,2.3,�k�k��,17.9,75.8,0,0,0,17.5
2023-10-02T04:32:00+09:00,1,���k��,2.2,�k�k��,17.9,76,0,0,0,17.5
2023-10-02T04:33:00+09:00,1,���k��,1.9,�k��,17.9,76.3,0,0,0,17.5
2023-10-02T04:34:00+09:00,0.9,���k��,1.9,�k��,18,76.4,0,0,0,17.5
2023-10-02T04:35:00+09:00,1,���k��,3.2,���k��,18,76.3,0,0,0,17.5
2023-10-02T04:36:00+09:00,1,���k��,3.2,���k��,18,76.1,0,0,0,17.5
2023-10-02T04:37:00+09:00,0.9,��,3.2,���k��,18,76.3,0,0,0,17.5
2023-10-02T04:38:00+09:00,0.9,��,3.2,���k��,17.8,76.6,0,0,0,17.5
2023-10-02T04:39:00+09:00,0.8,��,3.2,���k��,17.8,77.4,0,0,0,17.5
2023-10-02T04:40:00+09:00,0.9,��,3.2,���k��,18,77.6,0,0,0,17.5
2023-10-02T04:41:00+09:00,1,��,3.2,���k��,18.1,77.2,0,0,0,17.5
2023-10-02T04:42:00+09:00,1,��,3.2,���k��,18.1,76.5,0,0,0,17.5
2023-10-02T04:43:00+09:00,1.1,���쓌,3.2,���k��,17.9,76.2,0,0,0,17.5
2023-10-02T04:44:00+09:00,1.2,���쓌,3.2,���k��,17.8,76.4,0,0,0,17.5
2023-10-02T04:45:00+09:00,1.1,���쓌,2.4,�쓌,17.7,77,0,0,0,17.5
2023-10-02T04:46:00+09:00,1.1,���쓌,2.4,�쓌,17.8,77.5,0,0,0,17.5
2023-10-02T04:47:00+09:00,1.1,���쓌,2.8,���k��,18,77.3,0,0,0,17.5
2023-10-02T04:48:00+09:00,1.2,��,2.8,���k��,18.1,76.3,0,0,0,17.5
2023-10-02T04:49:00+09:00,1.3,��,2.8,���k��,18.1,75.2,0,0,0,17.5
2023-10-02T04:50:00+09:00,1.3,���쓌,2.8,���k��,17.9,75.1,0,0,0,17.5
2023-10-02T04:51:00+09:00,1.3,���쓌,2.8,���k��,17.7,75.8,0,0,0,17.5
2023-10-02T04:52:00+09:00,1.2,���쓌,2.8,���k��,17.7,77,0,0,0,17.5
2023-10-02T04:53:00+09:00,1.1,���쓌,2.8,���k��,17.7,77.8,0,0,0,17.5
2023-10-02T04:54:00+09:00,1.1,���쓌,2.8,���k��,17.6,78.3,0,0,0,17.5
2023-10-02T04:55:00+09:00,1.1,���쓌,2.8,���k��,17.6,78.7,0,0,0,17.5
2023-10-02T04:56:00+09:00,1.1,���쓌,2.8,���k��,17.6,78.8,0,0,0,17.5
2023-10-02T04:57:00+09:00,1.1,���쓌,2.2,��쓌,17.8,78.7,0,0,0,17.5
2023-10-02T04:58:00+09:00,1,���쓌,2.2,��쓌,17.8,78.3,0,0,0,17.5
2023-10-02T04:59:00+09:00,0.9,�쓌,2.2,��쓌,17.7,77.6,0,0,0,17.5
2023-10-02T05:00:00+09:00,0.9,���쓌,1.7,�k��,17.4,77.1,0,0,0,17.5
2023-10-02T05:01:00+09:00,0.9,���쓌,1.7,�k��,17.3,77.6,0,0,0,17.5
2023-10-02T05:02:00+09:00,0.9,���쓌,1.8,��쐼,17.3,78.5,0,0,0,17.5
2023-10-02T05:03:00+09:00,0.9,�쓌,1.8,��쐼,17.3,79.1,0,0,0,17.5
2023-10-02T05:04:00+09:00,0.9,��쓌,1.8,��쐼,17.3,79.3,0,0,0,17.5
2023-10-02T05:05:00+09:00,0.8,��쓌,1.8,��쐼,17.3,79.2,0,0,0,17.5
2023-10-02T05:06:00+09:00,0.9,��쓌,1.8,��쐼,17.3,79.3,0,0,0,17.5
2023-10-02T05:07:00+09:00,0.8,��,1.8,��쐼,17.3,79.5,0,0,0,17.5
2023-10-02T05:08:00+09:00,0.8,��,1.8,��쐼,17.5,79.5,0,0,0,17.5
2023-10-02T05:09:00+09:00,0.9,��쓌,1.8,��쐼,17.5,79.1,0,0,0,17.5
2023-10-02T05:10:00+09:00,0.8,��쓌,1.8,��쐼,17.5,78.6,0,0,0,17.5
2023-10-02T05:11:00+09:00,0.8,�쓌,1.8,��쐼,17.4,78.2,0,0,0,17.5
2023-10-02T05:12:00+09:00,0.8,�쓌,1.8,��쐼,17.5,78.2,0,0,0,17.5
2023-10-02T05:13:00+09:00,0.8,�쓌,3.5,�쓌,17.6,77.8,0,0,0,17.5
2023-10-02T05:14:00+09:00,1,�쓌,3.5,�쓌,17.7,77,0,0,0,17.5
2023-10-02T05:15:00+09:00,1.1,���쓌,3.5,�쓌,17.6,75.8,0,0,0,17.5
2023-10-02T05:16:00+09:00,1.2,���쓌,3.5,�쓌,17.5,75.2,0,0,0,17.5
2023-10-02T05:17:00+09:00,1.2,���쓌,3.5,�쓌,17.6,75.7,0,0,0,17.5
2023-10-02T05:18:00+09:00,1.2,���쓌,3.5,�쓌,17.6,75.3,0,0,0,17.5
2023-10-02T05:19:00+09:00,1.1,���쓌,3.5,�쓌,17.5,75.4,0,0,0,17.5
2023-10-02T05:20:00+09:00,1.1,���쓌,3.5,�쓌,17.3,75.8,0,0,0,17.5
2023-10-02T05:21:00+09:00,1.1,��,3.5,�쓌,17.3,76.7,0,0,0,17.5
2023-10-02T05:22:00+09:00,1.1,���쓌,3.5,�쓌,17.3,78.3,0,0,0,17.5
2023-10-02T05:23:00+09:00,1,���쓌,3.2,��,17.2,78.2,0,0,0,17.5
2023-10-02T05:24:00+09:00,0.9,���쓌,2.4,���쓌,17.1,78.5,0,0,0,17.5
2023-10-02T05:25:00+09:00,0.9,�쓌,2.4,���쓌,17.1,78.8,0,0,0,17.5
2023-10-02T05:26:00+09:00,0.9,�쓌,2.4,���쓌,17.1,78.9,0,0,0,17.5
2023-10-02T05:27:00+09:00,0.9,�쓌,2,�쓌,17.3,79.2,0,0,0,17.5
2023-10-02T05:28:00+09:00,0.9,�쓌,2,�쓌,17.5,78.3,0,0,0,17.5
2023-10-02T05:29:00+09:00,0.9,�쓌,2,�쓌,17.4,77.1,0,0,0,17.5
2023-10-02T05:30:00+09:00,1,�쓌,2,�쓌,17.4,76.7,0,0,0,17.5
2023-10-02T05:31:00+09:00,1,�쓌,2,�쓌,17.4,76.5,0,0,0,17.5
2023-10-02T05:32:00+09:00,1,�쓌,2,�쓌,17.6,76.3,0,0,0,17.5
2023-10-02T05:33:00+09:00,1,���쓌,2,�쓌,17.5,75.7,0,0,0,17.5
2023-10-02T05:34:00+09:00,1,���쓌,2,�쓌,17.2,75.3,0,0,0,17.5
2023-10-02T05:35:00+09:00,0.9,���쓌,2,�쓌,17.2,76.1,0,0,0,17.5
2023-10-02T05:36:00+09:00,0.9,���쓌,1.8,�쓌,17.2,76.9,0,0,0,17.5
2023-10-02T05:37:00+09:00,0.9,���쓌,2,�쓌,17.2,76.8,0,0,0,17.5
2023-10-02T05:38:00+09:00,0.9,���쓌,2,�쓌,17.1,76.9,0,0,0,17.5
2023-10-02T05:39:00+09:00,0.9,�쓌,2,�쓌,17.1,76.9,0,0,0,17.5
2023-10-02T05:40:00+09:00,1,�쓌,2,�쓌,17,77,0,0,0,17.5
2023-10-02T05:41:00+09:00,1,�쓌,2.3,���쓌,16.9,77,0,0,0,17.5
2023-10-02T05:42:00+09:00,1,�쓌,2.3,���쓌,17.1,77.6,0,0,0,17.5
2023-10-02T05:43:00+09:00,0.9,�쓌,2.3,���쓌,17.2,77.5,0,0,0,17.5
2023-10-02T05:44:00+09:00,1,�쓌,2.3,���쓌,17.1,76.9,0,0,0,17.5
2023-10-02T05:45:00+09:00,1,�쓌,2.3,���쓌,17,77,0,0,0,17.5
2023-10-02T05:46:00+09:00,1,�쓌,2.3,���쓌,16.9,77.4,0,0,0,17.5
2023-10-02T05:47:00+09:00,1,�쓌,2.3,���쓌,16.8,77.9,0,0,0,17.5
2023-10-02T05:48:00+09:00,1,�쓌,2.3,���쓌,17,78.5,0,0,0,17.5
2023-10-02T05:49:00+09:00,1,�쓌,2.3,���쓌,17.4,78.2,0,0,0,17.5
2023-10-02T05:50:00+09:00,1,���쓌,2.3,���쓌,17.7,76,0,0,0,17.5
2023-10-02T05:51:00+09:00,0.9,���쓌,2.2,�쓌,17.5,73.9,0,0,0,17.5
2023-10-02T05:52:00+09:00,1,���쓌,2.2,�쓌,17.3,73.8,0,0,0,17.5
2023-10-02T05:53:00+09:00,1.1,���쓌,2.2,�쓌,17.2,74.6,0,0,0,17.5
2023-10-02T05:54:00+09:00,1.2,���쓌,2.2,�쓌,17,75.3,0,0,0,0
2023-10-02T05:55:00+09:00,1.2,���쓌,2.2,�쓌,16.9,76.4,0,0,0,0
2023-10-02T05:56:00+09:00,1.1,���쓌,2.2,�쓌,16.8,77.4,0,0,0,0
2023-10-02T05:57:00+09:00,1.1,���쓌,2.2,�쓌,16.6,78,0,0,0,0
2023-10-02T05:58:00+09:00,1,���쓌,2,���쓌,16.6,78.6,0,0,0,0
2023-10-02T05:59:00+09:00,1.1,���쓌,2.2,�쓌,16.8,79.3,0,0,0,0
2023-10-02T06:00:00+09:00,1,�쓌,2.2,�쓌,17.2,79.1,0,0,0,0
2023-10-02T06:01:00+09:00,1,�쓌,2.2,�쓌,16.9,77.5,0,0,0,0
2023-10-02T06:02:00+09:00,1,�쓌,2.2,�쓌,16.8,77.3,0,0,0,0
2023-10-02T06:03:00+09:00,1,�쓌,2.2,�쓌,16.8,77.8,0,0,0,0
2023-10-02T06:04:00+09:00,0.9,�쓌,2.2,�쓌,16.8,78.2,0,0,0,0
2023-10-02T06:05:00+09:00,0.9,�쓌,2.2,�쓌,16.5,78.3,0,0,0,0
2023-10-02T06:06:00+09:00,0.9,��쓌,2.2,�쓌,16.4,78.6,0,0,0,0
2023-10-02T06:07:00+09:00,0.9,��쓌,2.2,�쓌,16.3,79.5,0,0,0,0
2023-10-02T06:08:00+09:00,0.9,��쓌,2.2,�쓌,16.5,80.7,0,0,0,0
2023-10-02T06:09:00+09:00,0.8,��쓌,1.7,�쓌,16.7,80.9,0,0,0,0
2023-10-02T06:10:00+09:00,0.8,��쓌,1.7,�쓌,16.7,80.5,0,0,0,0
2023-10-02T06:11:00+09:00,0.8,��쓌,1.7,�쓌,16.6,80.4,0,0,0,0
2023-10-02T06:12:00+09:00,0.9,��쓌,1.7,�쓌,16.5,80.2,0,0,0,0
2023-10-02T06:13:00+09:00,0.9,��쓌,1.5,���쓌,16.4,80.1,0,0,0,0
2023-10-02T06:14:00+09:00,0.9,�쓌,1.5,���쓌,16.3,79.9,0,0,0,0
2023-10-02T06:15:00+09:00,0.9,�쓌,1.5,���쓌,16.4,80.2,0,0,0,0
2023-10-02T06:16:00+09:00,1,���쓌,1.5,���쓌,16.3,80.2,0,0,0,0